Location: Mat�lon
(46.2791°N, 7.1028°E)
Time: 19:15:44
(UTC+00:00)

Tiangong - Pass Details

Date: 05 October 2021
Orbit: 382 x 384 km, 41.5° (Epoch: 20 October)

Event Time Altitude Azimuth Distance (km) Brightness Sun altitude
Exits shadow 04:39:02 14° 236° (WSW) 1,204 3.0 -10.6°
Maximum altitude 04:40:36 19° 200° (SSW) 995 2.9 -10.3°
Drops below altitude 10° 04:42:54 10° 153° (SSE) 1,392 4.2 -9.9°
Sets 04:45:20 0° 134° (SE) 2,241 5.6 -9.5°
